Location: Newark
(25.6108°S, 54.5803°W)
Time: 11:30:55
(UTC+00:00)

Transit 2A - Pass Details

Date: 02 November 2020
Orbit: 595 x 964 km, 66.7° (Epoch: 28 November)

Event Time Altitude Azimuth Distance (km) Brightness Sun altitude
Rises 23:27:49 0° 178° (S) 3,234 9.6 -20.0°
Reaches altitude 10° 23:31:30 10° 151° (SSE) 2,388 8.6 -20.7°
Enters shadow 23:33:56 14° 125° (SE) 2,194 8.1 -21.2°
